DMSP 5D-2 F13 DEB, 40415

Orbit data source: Space-Track

DMSP 5D-2 F13 DEB, 40415 is space debris in SSO originally from a launch on Fri, 24 Mar 1995 UTC launched from the Air Force Western Test Range (AFWTR). Debris objects in space refer to the collection of defunct objects orbiting the Earth. Examples of debris include non-operational satellites, rocket bodies, and fragments generated from explosions, collisions, or faulty payload assembly.

Loading next visibility...
Identifier
40415, 1995-015AC
Orbit
SSO
Country
Flag of USUS
Related business
Manufacturer
Unknown
Mission
Spacecraft
Bus & Motor
Unknown
Mass
Unknown
Launch date (UTC)
1995-03-24 (31 years ago)
Launch vehicle
Unknown
Launch site
Air Force Western Test Range (AFWTR)
Object type
Payload
Rocket body
Debris
Shape & HBR
Unknown shape, 0.1 m
Radar Cross Section
Small (<0.1 m²)

Expand to show TLE details & history
Last TLE update: 8 hours ago

TLE from 8 hours ago
0 DMSP 5D-2 F13 DEB
1 40415U 95015AC  26127.28906525  .00001758  00000-0  70690-3 0  9995
2 40415  98.7196 154.7324 0007566  98.7845 261.4194 14.29384032580205
Epoch: 2026-05-07T06:56Z
TLE epoch observation values (Epoch: 2026-05-07T06:56:15.237Z)
Latitude
-0°
Longitude
-174.46843°
Altitude
797.531 km
Speed
7.454 km/s
True Right ascension
10h 18m 55s
True Declination
0° 00' 00"
Sunlit
Object was in daylight at epoch
Visualization orbit readout
Latitude
Unknown
Longitude
Unknown
Altitude
Unknown
Speed
Unknown
Apparent Right ascension
Unknown
Apparent Declination
Unknown
Sunlit
N/A
Visualization observer readout
Local Sidereal Time
22:42:23
Azimuth
Unknown
Elevation
Unknown
Doppler factor
Unknown
Orbital elements
Apogee altitude
796.361 km
Perigee altitude
785.513 km
Semi-major axis
7,169.074 km
Eccentricity
0.00076
Inclination
98.7196°
RAAN
154.7324°
Arg. of periapsis
98.7845°
True anomaly
261.33368°
Mean anomaly
261.4194°
Eccentric anomaly
261.37654°
Mean motion
3.5756 °/min
Orbital period
100.68 mins
BSTAR
0.0007069
Loading maneuver chart data...
Computing Atmospheric mass density...

Documentation

Showing up to 5 results
|